ATLAS 5 CENTAUR DEB, 50214

Orbit data source: Space-Track

ATLAS 5 CENTAUR DEB, 50214 is space debris in GEO originally from a launch on Tue, 07 Dec 2021 UTC launched from the Air Force Eastern Test Range (AFETR). Debris objects in space refer to the collection of defunct objects orbiting the Earth. Examples of debris include non-operational satellites, rocket bodies, and fragments generated from explosions, collisions, or faulty payload assembly.

Not visible in the next 10 days
Identifier
50214, 2021-118D
Orbit
GEO
Country
Flag of USUS
Related business
Manufacturer
NGIS/HARRL3?
Mission
Spacecraft
Bus & Motor
ESPASAT, Unknown motor
Mass
~100 kg wet, 80 kg dry
Launch date (UTC)
2021-12-07 (4 years ago)
Launch vehicle
Unknown
Launch site
Air Force Eastern Test Range (AFETR)
Object type
Payload
Rocket body
Debris
Shape & HBR
Unknown shape, 1.1 m
Radar Cross Section
0.600 m², Large (>1 m²)

Expand to show TLE details & history
Last TLE update: 22 hours ago

TLE from 22 hours ago
0 ATLAS 5 CENTAUR DEB
1 50214U 21118D   25299.73327785 -.00000298  00000-0  00000-0 0  9994
2 50214   3.7082  80.3777 0012021  54.8841 305.2463  0.99332386 14104
Epoch: 2025-10-26T17:35Z
TLE epoch observation values (Epoch: 2025-10-26T17:35:55.206Z)
Latitude
Longitude
141.03462°
Altitude
36,022.348 km
Speed
3.067 km/s
True Right ascension
05h 21m 26s
True Declination
0° 00' 00"
Sunlit
Object was in daylight at epoch
Visualization orbit readout
Latitude
Unknown
Longitude
Unknown
Altitude
Unknown
Speed
Unknown
Apparent Right ascension
Unknown
Apparent Declination
Unknown
Sunlit
N/A
Visualization observer readout
Local Sidereal Time
10:34:13
Azimuth
Unknown
Elevation
Unknown
Doppler factor
Unknown
Orbital elements
Apogee altitude
36,104.08 km
Perigee altitude
36,002.067 km
Semi-major axis
42,431.21 km
Eccentricity
0.0012
Inclination
3.7082°
RAAN
80.3777°
Arg. of periapsis
54.8841°
True anomaly
305.1337°
Mean anomaly
305.2463°
Eccentric anomaly
305.19001°
Mean motion
0.24832 °/min
Orbital period
1,449.73 mins
BSTAR
0
Loading maneuver chart data...
Computing Atmospheric mass density...
Loading historical data...
Loading historical data...
Loading historical data...
Loading historical data...
Loading historical data...
Loading historical data...
Loading historical data...
Other satellites on launch #118 in the year 2021 (2021-12-07 UTC)

Documentation

Showing up to 5 results
|